Wetbulb
60.80 60.82 60.59 60.15 59.36 59.79 59.75 60.34 60.26 60.10 59.96 60.39 59.22 59.70 59.63 59.74 59.72 56.37 50.13 55.18 57.07 61.69 57.78 52.53 52.98 53.22 53.58 51.55 51.02 50.72 47.60 45.18 45.12 45.48 46.70 48.69 48.96 49.29 50.59 50.55 52.53 55.61 53.87 56.74 64.56
60.20 60.77 60.72 60.47 60.11 59.85 59.75 60.10 59.92 59.23 58.72 58.82 59.01 59.18 59.43 59.33 53.82 50.89 59.48 61.92 62.25 61.87 52.17 50.95 50.17 51.85 51.00 49.96 50.50 50.40 46.83 45.95 48.31 49.10 47.79 48.89 49.73 50.05 49.91 50.02 50.25 52.48 55.08 60.88 64.47
59.26 60.18 60.50 60.67 60.47 59.75 59.19 60.03 59.77 59.09 58.47 58.30 58.23 58.63 58.91 58.06 49.61 48.94 61.16 61.92 62.26 60.39 52.78 51.86 51.34 50.33 48.25 49.57 48.48 48.15 46.19 46.75 46.97 47.23 48.44 48.47 47.69 49.92 49.88 48.33 51.41 51.47 54.18 60.48 62.21
58.91 59.36 59.81 60.08 60.15 59.10 59.16 59.86 59.30 58.62 58.13 57.98 57.96 58.35 58.43 55.97 40.95 53.26 61.57 61.43 60.61 54.71 51.67 50.83 50.41 47.50 47.01 46.29 46.60 45.99 45.58 46.14 45.98 47.48 46.76 47.25 48.43 47.67 49.18 50.63 50.53 53.05 55.48 60.67 61.20
58.29 58.26 59.02 59.10 59.33 59.33 59.27 59.64 58.91 58.46 58.30 57.95 58.08 58.71 55.69 48.00 46.76 55.51 59.76 58.75 54.21 52.89 50.59 49.08 47.85 47.21 45.62 45.33 45.59 45.01 45.50 45.00 45.96 45.67 46.41 46.84 46.53 47.02 47.91 50.83 49.38 50.42 54.04 58.69 60.89
57.90 57.86 58.26 58.18 58.44 59.05 59.17 59.27 58.65 58.38 58.00 57.98 58.64 58.43 51.89 42.96 52.80 56.29 54.85 52.87 52.97 52.15 50.28 50.01 48.79 48.88 45.91 45.21 45.35 45.62 44.94 44.91 45.65 45.05 45.41 44.81 44.23 45.18 46.64 47.40 47.51 48.64 52.51 55.70 59.69
57.68 57.51 57.77 57.74 58.04 58.74 59.12 59.10 58.49 58.41 58.03 58.10 58.77 55.02 49.31 46.27 53.97 55.00 53.43 52.93 53.25 52.26 49.85 50.32 50.20 47.94 47.66 44.61 46.02 45.12 42.80 44.28 44.82 45.14 44.64 45.82 43.80 43.89 47.38 46.26 46.18 47.12 49.78 53.05 57.01
57.48 57.24 57.37 57.38 57.70 58.47 58.84 58.98 58.66 58.08 57.93 58.17 58.73 53.34 45.53 52.11 54.67 52.09 52.73 51.76 53.10 53.34 52.00 51.73 51.57 48.88 46.97 47.02 44.87 42.71 43.35 40.70 42.20 44.24 44.48 44.63 41.71 43.66 45.82 46.18 46.73 47.20 47.86 49.00 51.59
57.12 56.99 57.19 57.12 57.71 57.92 58.52 58.63 57.89 57.68 57.42 58.62 53.58 49.36 43.73 55.19 50.63 52.94 52.67 50.61 51.58 51.81 52.10 51.01 50.94 47.05 46.31 44.02 41.66 41.64 39.15 39.12 39.35 43.53 43.86 43.13 42.24 44.19 46.56 46.68 47.23 47.97 48.04 47.86 48.61
56.92 56.92 57.10 57.02 57.60 57.67 58.13 57.81 57.53 57.51 56.68 55.19 52.64 46.42 46.77 46.42 51.72 51.08 51.89 52.02 49.92 50.30 49.51 49.17 47.88 44.90 43.20 42.12 35.78 37.85 37.45 37.76 39.31 41.27 42.08 41.34 42.65 45.60 46.51 45.92 47.55 48.81 49.23 48.98 49.52
56.89 56.98 57.06 56.91 57.69 58.09 57.30 54.22 47.98 46.69 50.95 44.93 45.40 43.60 44.30 50.16 51.66 49.21 50.56 49.24 49.04 48.34 43.58 44.95 42.65 39.91 41.94 42.86 40.15 40.68 38.41 38.30 39.25 41.18 41.50 41.96 42.20 44.61 46.92 46.27 47.15 48.30 48.95 49.59 50.22
56.92 56.97 56.97 57.18 57.85 57.72 55.31 47.74 47.19 48.71 41.26 47.82 46.94 46.55 48.56 50.60 45.72 47.31 50.39 46.64 45.96 42.13 43.63 42.10 39.66 43.23 43.83 40.64 39.91 39.65 38.24 37.77 38.88 40.73 41.26 40.31 40.96 44.47 45.45 45.69 47.70 48.20 48.29 48.22 48.85
56.78 56.66 56.76 57.20 57.22 55.63 51.55 48.50 52.85 50.18 41.84 41.85 46.36 45.68 47.48 48.76 45.23 45.60 48.22 45.24 43.29 40.31 42.00 40.31 40.50 41.86 40.81 38.80 38.40 38.33 38.22 37.37 37.98 38.82 38.93 38.97 39.68 40.82 42.08 42.55 44.22 44.87 45.34 45.32 45.31
56.72 56.50 56.80 57.00 53.17 52.70 49.37 53.50 55.41 53.59 37.58 37.84 40.94 44.75 47.69 48.10 43.31 47.53 48.54 45.98 41.48 40.10 40.58 40.85 39.67 39.71 39.33 38.51 40.38 35.81 39.76 38.84 37.58 38.05 34.99 38.11 34.38 39.71 41.24 41.74 42.33 43.63 44.36 46.02 46.98
56.51 56.40 56.87 56.41 51.35 48.98 50.28 53.80 55.40 48.41 26.01 40.27 40.31 48.46 47.43 44.51 43.89 43.84 47.68 45.56 40.28 39.35 40.75 38.58 37.64 37.99 37.63 39.11 40.74 38.39 39.44 38.67 37.87 37.12 36.57 35.95 35.35 38.60 37.94 40.13 41.50 42.86 43.70 44.98 45.59
56.45 56.35 56.29 53.33 53.43 51.97 52.05 54.83 50.87 35.48 25.48 35.50 40.92 40.57 41.23 42.11 41.96 43.85 44.91 45.36 43.77 40.14 39.41 39.38 40.98 40.80 40.61 37.65 40.48 39.78 38.97 38.47 37.57 36.17 31.32 36.17 35.44 36.39 38.53 39.79 40.23 41.68 44.36 44.33 45.30
56.14 56.01 55.07 53.77 48.95 53.02 54.59 49.81 33.15 27.98 37.68 34.78 36.10 39.63 39.94 37.88 39.17 41.16 40.30 39.40 37.67 34.23 34.43 37.52 37.98 40.15 40.83 37.85 39.14 39.25 38.69 31.17 29.98 29.99 29.47 31.87 31.72 37.82 39.85 39.73 41.03 42.60 44.37 44.05 45.02
55.65 55.60 53.93 53.14 53.18 53.30 50.94 40.06 27.22 33.54 34.37 39.73 38.51 38.93 35.78 38.48 38.77 38.38 38.42 36.67 40.43 37.95 35.49 32.64 30.19 37.76 40.50 39.69 37.23 37.88 38.43 32.93 25.87 25.77 29.86 30.59 30.23 37.09 39.59 40.58 41.77 43.90 43.61 44.35 44.99
51.51 54.33 51.41 53.16 52.86 53.40 43.93 30.95 30.81 34.41 38.62 37.52 37.63 34.44 34.49 37.87 38.16 37.74 37.71 37.62 39.85 38.94 35.24 33.02 33.38 38.39 38.95 40.00 41.28 36.78 34.09 38.49 29.38 23.37 29.20 33.81 35.99 39.98 39.70 41.32 42.11 42.14 43.13 43.12 43.36
46.65 50.51 49.39 53.48 53.14 48.79 37.74 33.51 35.71 39.17 41.21 39.94 33.87 36.25 32.31 34.74 35.17 36.32 35.60 39.99 38.30 39.80 40.50 37.27 31.62 36.09 37.68 40.87 39.99 38.63 40.04 32.79 33.74 26.91 25.86 31.79 31.76 36.19 36.78 39.17 40.62 41.02 42.14 41.75 42.08
43.16 41.50 45.99 53.33 51.29 43.47 32.63 35.20 37.64 41.01 42.70 38.99 37.39 34.45 36.00 34.53 36.41 35.23 35.70 38.68 41.45 38.45 40.77 37.97 36.63 32.98 36.91 36.37 36.64 35.59 34.92 35.63 36.32 34.04 30.04 27.80 32.74 39.71 41.52 42.17 41.48 42.21 42.21 42.19 42.35
40.04 32.80 46.23 50.68 38.29 38.45 34.28 38.46 40.22 40.22 43.92 41.97 41.06 38.61 36.58 36.93 35.35 35.65 35.84 38.41 42.13 40.97 36.71 39.72 37.01 31.91 34.14 37.57 38.82 39.73 37.95 37.52 33.04 29.57 31.59 30.46 33.48 37.92 40.33 43.33 43.58 42.12 41.17 41.97 42.31
35.84 33.48 45.62 45.60 31.62 32.50 37.49 37.98 39.90 39.84 41.82 40.84 39.89 40.65 39.52 36.74 33.94 37.07 37.72 40.58 40.63 40.44 39.19 38.79 35.94 30.78 31.26 35.49 36.69 35.04 36.66 38.45 38.62 35.36 31.18 30.73 33.89 38.52 41.04 41.18 42.14 41.04 41.33 41.11 41.11
37.42 32.76 34.23 34.47 33.53 36.04 35.69 35.88 35.56 42.29 41.67 41.62 41.18 41.92 38.61 36.68 38.69 36.05 36.63 40.25 40.89 41.13 41.89 41.55 35.36 34.28 30.66 34.13 37.21 33.62 35.28 36.51 36.22 31.91 32.99 33.40 36.71 36.88 38.63 40.04 40.14 40.27 41.42 41.07 40.55
36.21 33.34 33.95 30.94 31.94 34.66 37.59 37.15 35.31 35.50 41.55 42.59 39.54 40.75 38.93 35.40 35.99 35.78 38.67 38.88 41.23 41.81 41.14 40.69 33.01 34.99 37.09 36.20 37.43 37.25 36.09 36.45 34.50 36.64 33.32 36.28 36.03 39.17 41.38 41.96 41.97 41.29 40.97 38.98 38.11
33.51 32.25 34.13 33.56 34.54 33.77 35.27 33.13 34.51 37.16 38.57 38.35 38.44 39.97 40.35 37.50 38.02 34.79 37.70 38.40 38.33 40.62 38.86 39.38 34.54 35.06 31.62 35.77 35.63 34.16 36.66 37.30 37.08 37.55 37.46 37.60 36.76 42.51 44.54 44.80 42.00 40.34 38.79 37.96 38.11
37.77 37.76 36.09 33.50 33.47 32.81 32.78 33.72 33.73 36.90 37.43 40.09 40.87 39.94 38.72 41.02 41.50 41.85 42.85 43.00 42.26 39.37 37.91 36.39 34.36 32.94 30.34 34.09 33.86 30.23 33.89 35.73 36.66 38.46 38.48 34.44 39.18 39.19 39.33 39.39 40.91 39.80 38.73 38.34 38.53
MSLP
1012.72 1013.17 1013.78 1014.26 1014.69 1015.07 1015.44 1015.96 1016.26 1016.49 1016.50 1016.68 1016.62 1016.98 1016.81 1016.75 1016.98 1016.77 1016.04 1015.29 1015.25 1015.38 1015.65 1015.94 1015.79 1015.69 1015.77 1015.83 1015.85 1015.53 1014.64 1014.18 1014.31 1014.49 1014.86 1015.77 1015.63 1016.26 1016.59 1016.44 1016.87 1017.10 1017.26 1018.23 1018.49
1012.34 1012.65 1013.36 1013.82 1014.40 1014.81 1015.26 1015.70 1015.96 1016.33 1016.52 1016.74 1016.88 1016.85 1016.90 1016.60 1016.57 1015.90 1015.02 1014.95 1015.17 1015.37 1015.48 1015.57 1015.60 1015.66 1015.37 1015.81 1015.68 1015.12 1014.73 1014.40 1014.53 1014.50 1014.81 1015.45 1015.55 1015.82 1016.16 1016.21 1016.57 1017.15 1017.92 1018.51 1019.36
1012.05 1012.59 1012.98 1013.69 1014.07 1014.64 1015.10 1015.39 1015.68 1016.22 1016.65 1016.76 1016.78 1016.75 1016.99 1016.52 1016.01 1014.55 1014.72 1014.89 1015.22 1015.50 1015.50 1015.43 1015.53 1015.59 1015.34 1015.86 1015.56 1015.29 1014.98 1015.00 1015.12 1015.38 1015.37 1015.56 1015.89 1016.12 1015.98 1015.99 1015.74 1016.25 1017.21 1018.57 1019.25
1011.60 1012.22 1012.73 1013.27 1013.66 1014.34 1014.81 1015.01 1015.58 1016.19 1016.48 1016.58 1016.62 1016.68 1016.80 1016.27 1015.48 1014.61 1014.40 1014.63 1014.93 1015.34 1015.39 1015.48 1015.28 1015.58 1015.44 1015.71 1015.56 1015.32 1015.52 1015.68 1015.94 1016.07 1016.23 1015.97 1016.19 1016.22 1016.18 1015.96 1016.43 1016.43 1016.68 1018.10 1018.89
1011.18 1011.88 1012.45 1012.90 1013.45 1014.11 1014.68 1014.98 1015.29 1015.66 1016.24 1016.55 1016.45 1016.45 1016.57 1015.91 1014.62 1014.65 1014.59 1014.68 1014.68 1015.20 1015.27 1015.26 1015.12 1015.30 1015.26 1015.52 1015.70 1015.49 1015.78 1016.25 1016.51 1016.63 1016.64 1016.58 1016.58 1016.48 1016.07 1016.27 1017.00 1017.34 1017.35 1017.56 1018.05
1010.78 1011.45 1012.15 1012.80 1013.57 1014.01 1014.54 1015.02 1015.18 1015.56 1016.12 1016.60 1016.44 1016.38 1016.09 1015.41 1014.74 1014.54 1014.63 1014.95 1014.77 1015.05 1015.48 1015.44 1015.10 1014.95 1015.24 1015.80 1015.90 1015.88 1016.11 1016.47 1016.92 1016.93 1016.97 1016.80 1016.99 1016.98 1016.28 1016.40 1016.78 1017.26 1017.31 1017.25 1017.57
1010.42 1011.24 1012.12 1012.78 1013.44 1013.74 1014.40 1015.06 1015.30 1015.52 1016.01 1016.43 1016.27 1016.12 1015.82 1014.97 1014.79 1014.75 1014.93 1014.86 1014.82 1014.60 1015.12 1015.31 1014.96 1015.04 1015.51 1016.09 1016.51 1016.28 1016.64 1016.77 1016.99 1017.11 1017.31 1017.01 1017.02 1016.44 1016.35 1016.58 1016.55 1016.76 1017.01 1017.20 1017.29
1010.12 1010.86 1011.76 1012.34 1013.17 1013.56 1014.38 1015.00 1015.24 1015.59 1016.06 1016.27 1016.28 1016.02 1015.07 1015.09 1014.79 1014.89 1014.76 1014.93 1015.04 1014.70 1014.98 1015.33 1015.31 1015.50 1016.02 1016.45 1016.60 1016.44 1016.73 1016.91 1017.06 1017.34 1017.59 1017.22 1016.30 1016.14 1016.73 1016.58 1016.21 1016.43 1016.44 1016.70 1016.82
1009.89 1010.49 1011.38 1012.12 1012.98 1013.51 1014.32 1014.96 1015.38 1015.67 1016.05 1016.13 1016.22 1015.73 1015.09 1015.39 1015.12 1014.78 1014.68 1014.82 1015.13 1015.05 1015.25 1015.53 1015.51 1015.81 1016.20 1016.01 1016.51 1016.60 1016.13 1016.94 1017.33 1017.71 1017.40 1017.22 1016.33 1016.18 1016.59 1016.43 1016.02 1016.16 1016.02 1016.18 1016.31
1009.49 1010.14 1011.06 1011.93 1012.56 1013.50 1014.34 1015.11 1015.49 1015.67 1015.92 1015.97 1015.91 1016.06 1015.21 1014.87 1014.64 1014.87 1015.00 1015.26 1015.24 1015.30 1015.17 1015.44 1015.76 1015.93 1015.94 1015.89 1015.59 1016.11 1016.41 1017.03 1017.40 1017.96 1017.64 1017.49 1016.39 1015.92 1016.27 1016.34 1015.74 1015.75 1015.75 1015.83 1015.76
1009.09 1009.86 1010.69 1011.45 1012.43 1013.39 1014.39 1014.97 1015.48 1015.71 1015.40 1014.73 1014.70 1014.55 1014.52 1015.00 1014.72 1014.93 1014.93 1014.98 1014.98 1014.90 1014.64 1015.53 1015.45 1015.11 1015.51 1016.02 1016.20 1016.35 1016.60 1017.02 1017.61 1018.13 1018.05 1017.48 1016.61 1015.92 1015.75 1015.90 1015.49 1015.28 1015.32 1015.33 1015.40
1008.75 1009.68 1010.46 1011.21 1012.12 1013.21 1013.78 1013.09 1012.85 1012.86 1014.70 1014.93 1014.78 1014.72 1014.80 1014.71 1014.84 1015.00 1015.02 1014.82 1014.88 1014.90 1015.35 1016.08 1015.23 1015.72 1016.13 1016.68 1016.69 1016.80 1016.83 1017.23 1018.04 1018.47 1018.30 1017.61 1016.62 1015.57 1015.48 1015.26 1014.80 1014.79 1015.00 1015.30 1015.60
1008.26 1009.08 1009.99 1011.19 1012.23 1013.17 1013.18 1013.10 1012.77 1012.53 1013.22 1014.58 1014.63 1014.58 1014.58 1014.85 1014.34 1014.62 1014.69 1014.92 1014.86 1015.34 1015.15 1015.08 1015.62 1015.80 1016.31 1016.86 1016.75 1017.16 1017.25 1017.87 1018.28 1018.72 1018.47 1017.63 1016.03 1015.13 1015.09 1015.31 1015.24 1015.34 1015.42 1015.83 1016.16
1007.79 1008.80 1009.57 1010.81 1012.70 1012.65 1013.09 1012.94 1012.86 1012.61 1012.92 1014.40 1014.55 1013.85 1014.29 1014.36 1014.62 1014.76 1014.54 1014.54 1015.17 1015.36 1015.86 1015.73 1016.21 1016.21 1016.64 1016.90 1017.14 1017.69 1017.94 1018.24 1018.42 1018.01 1018.14 1018.11 1016.18 1015.36 1015.07 1015.03 1015.34 1015.55 1015.85 1016.46 1016.61
1006.98 1008.15 1009.21 1010.53 1010.95 1012.21 1012.12 1013.07 1012.78 1012.67 1012.95 1012.86 1013.58 1013.59 1013.45 1013.93 1014.15 1014.88 1014.82 1014.69 1014.80 1015.34 1015.94 1015.85 1016.24 1016.76 1016.74 1016.66 1017.33 1018.03 1018.28 1018.31 1018.60 1018.74 1018.69 1018.48 1017.89 1015.28 1015.29 1014.76 1015.22 1015.85 1016.55 1017.12 1017.42
1006.67 1007.69 1008.87 1010.48 1010.99 1011.53 1012.32 1012.85 1013.02 1013.54 1012.65 1012.78 1013.02 1013.14 1013.59 1013.93 1014.48 1014.87 1014.94 1014.97 1015.41 1015.54 1015.91 1016.44 1016.96 1016.75 1016.82 1017.59 1017.78 1018.60 1018.67 1019.03 1019.24 1019.29 1018.85 1017.86 1017.54 1015.25 1015.07 1014.86 1015.61 1016.31 1017.24 1017.68 1017.97
1006.85 1007.43 1008.38 1009.52 1010.21 1011.33 1012.46 1012.91 1013.81 1013.29 1012.18 1012.51 1012.28 1012.64 1012.66 1013.51 1014.41 1014.36 1014.49 1014.65 1014.32 1015.10 1015.61 1016.62 1017.05 1017.14 1017.17 1017.85 1018.74 1018.18 1017.96 1018.96 1019.46 1019.53 1018.68 1018.93 1018.31 1014.78 1015.16 1015.46 1015.95 1016.61 1017.54 1018.19 1018.45
1006.65 1007.17 1007.86 1008.62 1009.58 1011.02 1012.25 1012.56 1013.26 1010.95 1011.12 1011.49 1011.58 1012.27 1012.53 1013.19 1013.63 1013.97 1014.19 1013.94 1013.85 1013.69 1014.37 1015.36 1016.97 1016.85 1016.95 1016.87 1017.16 1017.70 1017.18 1017.41 1018.42 1019.28 1018.91 1019.44 1017.43 1015.14 1015.64 1016.05 1016.54 1017.30 1018.13 1018.59 1018.79
1006.20 1006.49 1007.43 1008.54 1008.85 1010.34 1011.28 1011.75 1009.42 1009.57 1010.09 1011.17 1011.84 1011.89 1012.66 1012.59 1012.57 1013.32 1013.05 1012.54 1012.58 1012.78 1013.16 1014.55 1015.77 1016.54 1016.92 1016.83 1016.69 1017.64 1017.54 1017.26 1018.27 1020.00 1019.09 1017.39 1016.27 1015.51 1015.96 1016.45 1016.97 1017.76 1018.55 1018.94 1019.29
1006.65 1005.72 1006.79 1007.94 1008.59 1009.70 1011.06 1009.76 1009.44 1009.54 1009.59 1010.01 1009.95 1010.80 1011.01 1011.45 1012.11 1012.52 1012.78 1011.54 1012.08 1012.39 1012.55 1013.79 1015.55 1017.04 1017.34 1017.01 1016.97 1016.35 1016.55 1017.46 1017.52 1017.91 1017.60 1015.92 1015.65 1014.29 1015.39 1016.00 1016.93 1017.80 1018.61 1019.36 1019.74
1007.41 1006.79 1007.57 1007.60 1009.05 1009.98 1009.49 1009.04 1009.57 1009.66 1009.30 1009.20 1009.09 1010.10 1010.04 1010.42 1010.75 1011.28 1011.21 1011.46 1011.38 1012.31 1012.71 1013.56 1014.44 1017.29 1017.35 1016.05 1015.32 1016.49 1016.14 1016.22 1016.13 1016.27 1015.65 1014.95 1013.72 1013.50 1013.60 1014.81 1016.16 1017.49 1018.40 1019.18 1019.64
1008.46 1008.36 1007.82 1006.84 1008.93 1009.26 1008.98 1008.60 1009.25 1009.43 1009.49 1009.28 1009.17 1009.42 1009.46 1009.91 1010.36 1010.81 1010.50 1010.77 1010.90 1011.48 1012.26 1013.03 1014.19 1015.81 1015.87 1015.96 1015.92 1014.78 1014.30 1014.29 1014.40 1014.75 1015.41 1015.18 1013.38 1013.90 1014.45 1015.08 1016.30 1017.68 1018.81 1019.50 1020.01
1008.51 1008.95 1008.34 1008.12 1008.47 1008.92 1009.23 1009.16 1009.45 1009.30 1009.07 1009.19 1009.15 1008.97 1009.37 1009.49 1010.14 1010.25 1010.86 1011.28 1011.32 1011.45 1011.38 1012.58 1013.63 1015.07 1015.81 1016.17 1015.98 1015.00 1014.58 1014.10 1013.94 1014.57 1014.33 1014.93 1013.13 1014.43 1014.92 1015.66 1016.58 1017.58 1018.96 1019.91 1020.22
1008.93 1009.69 1009.66 1009.39 1009.32 1008.75 1008.89 1008.95 1009.25 1009.21 1009.12 1009.30 1009.14 1009.18 1009.43 1009.53 1009.66 1009.93 1011.15 1011.81 1011.85 1011.75 1011.73 1012.11 1012.88 1012.74 1012.08 1012.21 1013.84 1014.64 1014.20 1014.34 1014.12 1014.07 1012.46 1013.10 1012.24 1014.43 1015.32 1016.02 1017.07 1018.04 1018.84 1019.64 1020.11
1009.04 1009.54 1009.56 1009.40 1009.65 1009.05 1008.95 1008.92 1009.05 1009.23 1009.16 1009.34 1009.56 1009.14 1008.88 1009.51 1009.90 1010.22 1010.95 1012.07 1012.38 1012.45 1012.40 1012.28 1012.63 1013.12 1012.86 1013.21 1013.32 1013.00 1013.15 1013.46 1013.27 1011.73 1012.32 1010.36 1012.10 1012.69 1013.78 1015.09 1016.11 1017.49 1018.72 1019.53 1020.05
1009.10 1009.52 1009.76 1009.42 1009.32 1009.60 1009.19 1009.10 1008.85 1009.10 1009.01 1009.10 1009.32 1009.51 1009.31 1009.10 1008.93 1010.09 1010.58 1011.41 1011.71 1012.97 1012.82 1012.70 1012.87 1013.24 1013.55 1013.82 1013.80 1013.46 1012.86 1012.12 1011.61 1011.08 1011.39 1010.55 1010.89 1011.52 1013.43 1014.90 1016.33 1017.15 1018.28 1019.03 1019.59
1009.55 1009.51 1009.15 1009.46 1009.57 1009.67 1009.44 1009.45 1009.39 1009.62 1009.80 1009.06 1009.06 1009.44 1009.43 1009.03 1009.78 1009.97 1009.98 1010.44 1010.85 1011.52 1012.29 1012.80 1013.30 1014.12 1013.75 1014.13 1014.48 1013.88 1010.09 1011.61 1011.10 1010.70 1010.32 1010.61 1008.73 1012.51 1013.66 1014.65 1015.35 1016.59 1017.60 1018.38 1019.24
Wind_Speed
15 15 15 15 14 11 11 9 9 7 5 6 6 6 5 6 6 3 5 3 3 8 7 2 1 4 3 3 1 1 2 5 7 7 6 7 7 4 2 4 2 4 1 4 13
14 14 15 15 13 12 10 9 8 6 4 5 5 6 6 5 5 7 3 3 5 9 6 9 7 6 4 2 1 2 2 6 3 5 6 9 6 10 7 7 5 4 4 5 12
18 15 16 15 15 13 14 10 8 7 6 5 4 4 6 5 3 4 3 8 9 8 3 5 4 2 4 3 2 3 3 4 4 2 3 8 4 4 5 6 8 11 10 10 11
19 15 15 14 13 14 13 12 10 8 6 5 4 3 5 4 6 1 1 7 8 5 7 6 6 4 4 6 2 4 2 2 2 3 4 9 5 4 6 2 4 5 9 14 15
17 15 14 15 12 12 13 11 11 9 6 6 4 2 3 5 3 3 6 7 7 4 4 4 6 4 5 5 4 3 4 3 3 4 5 7 3 0 6 5 3 2 7 14 14
17 16 15 14 12 12 12 11 11 9 7 7 6 5 3 7 1 4 6 5 7 6 6 7 8 4 5 3 3 4 5 6 3 2 3 2 3 2 2 2 5 7 8 10 14
19 18 16 16 12 13 11 10 11 9 8 6 5 3 3 3 1 4 5 3 6 6 5 2 5 2 6 6 2 7 5 4 3 2 2 1 5 6 1 2 3 6 8 7 11
18 20 18 16 14 14 13 11 9 8 7 5 4 3 4 1 3 3 3 4 3 5 3 3 3 8 2 6 4 4 3 5 2 3 2 4 10 2 2 3 10 7 7 9 10
17 19 19 17 14 15 14 11 9 8 4 5 4 4 4 3 4 3 2 6 5 5 5 4 3 4 4 7 4 0 5 4 2 1 2 4 5 4 3 1 3 6 7 8 8
19 19 20 18 16 17 15 12 8 7 5 3 2 4 5 5 4 5 2 7 4 8 8 3 3 4 4 7 9 6 4 2 4 3 1 3 13 6 6 7 7 8 7 8 8
21 21 21 19 20 20 17 10 9 4 4 4 7 1 3 3 2 2 3 5 4 4 8 3 8 12 11 7 1 4 4 5 2 2 3 8 13 12 9 9 11 12 12 12 11
23 23 21 21 22 22 12 7 8 6 7 7 1 2 1 3 4 4 5 8 7 10 8 6 13 8 8 8 6 5 5 3 2 1 3 1 12 13 9 9 12 11 9 9 10
20 22 22 22 23 16 12 4 1 4 5 5 3 4 4 5 4 15 13 7 5 9 15 12 4 11 7 7 8 3 7 4 2 3 2 5 9 6 2 6 7 5 4 3 3
25 23 25 24 13 14 11 8 1 2 4 6 8 6 5 5 3 1 6 4 3 10 9 5 2 11 8 7 8 8 8 5 6 2 4 3 7 4 3 9 4 3 3 3 4
26 27 29 24 12 10 7 6 0 3 7 9 8 2 4 8 12 4 1 2 11 9 7 6 11 13 8 7 10 3 5 4 3 3 1 4 6 3 1 7 6 4 2 1 3
23 27 30 9 6 11 5 6 1 4 11 7 7 10 12 7 2 5 5 4 4 6 3 3 2 3 4 4 3 15 8 7 4 1 6 8 7 4 6 5 5 2 2 2 5
18 28 24 10 10 13 10 4 7 9 6 10 9 10 16 10 6 8 16 13 10 10 10 3 3 2 3 9 5 3 13 3 3 5 6 1 5 8 4 4 3 3 5 4 5
21 28 16 6 13 17 11 9 8 13 12 3 8 16 15 13 9 8 15 15 14 5 8 13 8 11 6 4 10 11 9 7 8 6 2 2 10 5 1 1 2 6 5 7 8
10 16 11 7 16 15 13 15 15 8 14 11 14 19 12 12 7 11 16 16 18 16 13 11 11 0 1 4 12 7 9 3 8 1 2 6 5 10 6 5 8 8 7 8 8
3 6 11 15 17 12 11 17 13 5 12 18 11 12 20 20 14 16 14 14 9 13 3 8 5 1 2 4 1 7 13 5 4 6 7 7 6 10 7 12 11 10 10 7 6
5 0 3 17 16 15 18 16 8 4 7 12 8 8 11 15 17 16 14 7 19 14 10 7 3 2 4 12 16 7 8 4 3 5 7 5 7 4 12 17 17 13 11 9 8
3 2 3 16 11 8 16 15 5 7 3 5 4 5 12 14 15 13 19 9 12 16 19 9 5 7 11 2 4 8 14 17 9 9 4 2 9 0 5 16 16 14 11 9 7
3 1 2 4 9 13 6 15 5 7 7 5 6 3 3 12 10 14 10 2 10 16 17 12 6 4 3 5 3 9 7 10 9 3 11 6 9 5 6 12 12 16 13 9 9
3 2 2 3 1 8 9 13 13 7 5 4 4 2 5 7 3 15 11 2 4 8 7 16 4 18 18 11 10 10 12 13 13 8 17 14 21 6 10 13 13 13 12 11 9
1 1 0 4 3 2 16 11 17 12 9 10 5 10 9 7 12 8 12 5 3 1 5 11 10 11 14 4 7 10 16 21 21 26 17 27 19 16 23 20 19 15 13 12 11
3 2 1 3 5 6 7 7 21 17 15 12 18 15 10 10 12 8 11 9 8 6 9 4 3 8 6 10 9 4 16 23 27 28 24 23 19 7 19 14 15 16 16 14 13
1 1 1 4 6 3 3 5 6 5 2 6 16 12 15 10 5 2 2 10 11 12 13 10 7 5 12 7 5 7 27 18 21 26 24 23 24 8 10 15 18 18 18 16 15
Wind_Direction
188 187 185 187 193 193 196 194 194 203 194 193 168 188 188 175 167 165 225 206 161 155 146 156 133 138 137 109 77 259 179 165 162 170 138 153 180 142 130 143 196 176 11 45 136
187 186 182 180 183 180 190 199 181 187 193 171 190 191 195 196 212 218 219 222 201 159 150 168 173 164 132 144 137 227 199 175 171 165 154 170 195 154 177 164 194 191 136 124 151
181 189 181 180 175 177 187 182 168 172 189 181 195 209 223 201 220 231 316 190 167 173 214 164 126 179 124 216 155 143 210 157 178 151 142 161 194 163 178 195 199 208 180 156 170
177 184 179 172 169 183 188 170 165 174 185 187 203 213 265 225 198 165 175 141 142 149 142 149 149 151 147 179 142 169 92 115 118 135 137 157 130 183 216 49 57 200 170 163 184
176 182 181 160 170 179 185 171 166 165 176 193 199 205 199 213 233 145 143 127 112 135 200 170 158 148 170 151 135 154 138 98 95 115 90 128 141 273 246 213 142 65 176 190 194
173 170 171 158 172 176 179 173 164 164 170 197 193 175 237 218 18 142 142 141 147 157 184 189 187 163 102 147 225 119 123 124 127 124 82 170 130 242 167 8 225 206 208 206 209
173 170 168 161 174 172 167 172 166 160 169 200 194 214 215 222 358 143 171 187 163 153 168 219 140 137 131 131 147 125 104 131 137 145 98 92 244 223 209 286 279 220 219 218 220
172 167 165 165 176 164 160 159 156 157 170 190 197 216 244 11 131 147 151 101 145 111 125 127 159 102 66 127 77 110 131 185 108 184 107 208 245 207 338 233 248 242 225 224 224
172 166 164 165 168 157 150 152 152 152 156 162 182 239 218 147 177 169 165 155 133 103 76 98 57 78 128 148 135 164 179 203 172 253 146 222 250 134 161 134 271 260 240 232 236
169 164 163 168 160 151 143 143 139 135 120 152 112 206 164 201 151 146 125 155 144 145 120 115 106 166 134 194 203 165 171 188 211 169 211 204 253 235 209 265 260 265 250 239 232
167 165 164 166 157 149 142 133 142 141 204 194 178 294 116 105 117 164 149 128 125 161 160 124 198 200 185 192 95 139 143 175 127 84 219 233 265 267 270 269 247 245 248 249 256
167 167 167 163 156 153 170 188 170 139 170 213 338 266 177 212 122 173 169 169 166 176 138 164 213 182 156 158 150 153 143 164 81 45 243 296 276 271 251 252 256 256 246 264 275
170 166 162 160 154 154 184 217 164 173 130 184 202 188 183 182 173 180 178 152 164 160 193 196 152 151 151 167 153 173 195 175 193 177 133 304 264 276 234 255 265 257 256 246 270
172 168 157 149 150 166 190 212 234 232 124 171 200 226 161 166 188 31 185 156 128 183 170 209 111 156 154 181 185 204 203 166 156 155 262 356 289 277 253 278 236 176 124 120 91
171 164 153 158 128 171 173 194 44 253 200 159 160 90 149 183 130 193 213 103 156 154 183 166 163 159 177 184 180 200 144 116 84 113 312 180 254 250 354 262 183 161 110 87 61
167 161 152 139 121 158 157 124 6 88 230 172 146 167 156 184 96 122 157 54 96 114 55 107 355 201 139 76 152 147 108 74 80 109 251 207 230 220 213 233 148 134 125 105 107
183 166 159 154 149 151 156 150 94 203 140 184 175 172 173 162 139 171 178 179 167 162 185 130 172 141 148 104 110 177 158 122 198 203 249 66 211 260 221 197 183 152 137 123 112
192 170 166 152 141 143 175 146 189 198 197 99 154 154 179 153 186 165 166 187 214 181 150 180 199 177 170 191 171 180 190 172 193 197 190 91 230 248 103 299 186 112 114 124 112
331 171 161 155 147 164 169 187 202 172 177 150 147 158 183 189 168 171 197 199 194 192 192 189 207 124 156 149 156 174 214 112 102 50 232 206 247 261 214 167 150 132 140 127 116
22 168 158 140 146 159 165 206 211 181 149 166 165 188 185 181 171 194 178 191 196 187 216 173 149 348 141 138 53 204 141 156 219 190 229 215 255 236 190 182 162 157 151 138 119
49 93 321 146 157 174 190 200 180 204 195 184 169 154 186 178 192 193 197 205 194 180 189 142 127 121 167 212 179 154 185 192 192 203 216 236 242 227 208 179 170 162 158 152 134
82 116 312 144 163 191 205 188 154 168 171 192 169 129 179 168 183 191 208 224 188 161 191 175 123 164 198 31 295 221 211 186 196 195 259 312 252 186 209 166 164 163 164 158 149
97 12 346 150 173 186 161 198 184 170 179 186 175 207 163 169 180 205 191 190 167 176 179 167 190 138 188 223 197 224 197 230 234 38 209 201 249 24 146 154 160 158 166 173 162
120 147 356 33 9 183 161 186 195 205 177 157 154 110 139 174 192 187 185 150 196 199 148 158 146 212 217 225 154 204 204 206 202 210 225 226 242 163 181 176 175 177 170 169 168
25 141 337 146 177 167 179 182 182 189 213 180 228 214 180 165 192 181 174 126 77 176 162 171 203 213 239 277 207 200 195 197 201 223 216 240 233 203 190 191 191 174 171 173 172
139 160 201 111 124 129 166 189 194 193 183 195 223 196 196 195 197 171 147 177 173 170 187 224 204 168 233 207 216 223 213 205 215 225 229 242 250 226 195 180 178 185 178 181 174
169 98 330 145 143 161 171 147 174 181 239 238 211 196 210 199 118 79 112 169 159 162 182 165 145 137 241 171 135 270 222 209 217 222 222 228 235 155 178 187 185 184 187 181 175